Track STARLINK-5402 now! 10-day predictions STARLINK-5402 is classified as:
1 54869U 22177BB 24325.60634848 .00000670 00000-0 64678-4 0 9994 2 54869 43.0026 176.1179 0001244 266.2525 93.8175 15.02538866105799